STARLINK-5650, 55475

Orbit data source: Space-Track

STARLINK-5650, 55475 is a payload satellite owned by SpaceX/Seattle (US) in LEO that was launched on Thu, 02 Feb 2023 UTC via an FALCON 9 launch vehicle from the Air Force Eastern Test Range (AFETR). Payload-class satellites include a variety of spacecraft equipped with specific instruments for various scientific and technological missions. These include communications satellites like Starlink; space stations such as the ISS; scientific satellites like the Hubble; Earth observation satellites from companies like Planet Labs, Umbra, and HawkEye 360; GPS; miniature CubeSats for education and research; and military/defense satellites.

Loading next visibility...
Identifier
55475, 2023-015AC
Orbit
LEO
Country
Flag of USUS
Related business
Manufacturer
SpaceX/Seattle
Mission
Operational Commercial Communications
Bus & Motor
STARLINK, Unknown motor
Mass
305 kg wet, ~290 kg dry
Launch date (UTC)
2023-02-02 (3 years ago)
Launch vehicle
FALCON 9
Launch site
Air Force Eastern Test Range (AFETR)
Object type
Payload
Rocket body
Debris
Shape & HBR
Box + 1 Pan, 10.1 m
Radar Cross Section
13.562 m², Large (>1 m²)

Expand to show TLE details & history
Last TLE update: 8 hours ago

TLE from 8 hours ago
0 STARLINK-5650
1 55475U 23015AC  25352.55692016 -.00000407  00000-0 -15026-4 0  9999
2 55475  43.0041  46.4850 0001211 262.1720  97.8985 15.02538976158558
Epoch: 2025-12-18T13:21Z
TLE epoch observation values (Epoch: 2025-12-18T13:21:57.901Z)
Latitude
-0.00003°
Longitude
118.58299°
Altitude
558.964 km
Speed
7.584 km/s
True Right ascension
03h 05m 56s
True Declination
0° 00' 00"
Sunlit
Object was in full shadow at epoch
Visualization orbit readout
Latitude
Unknown
Longitude
Unknown
Altitude
Unknown
Speed
Unknown
Apparent Right ascension
Unknown
Apparent Declination
Unknown
Sunlit
N/A
Visualization observer readout
Local Sidereal Time
20:08:11
Azimuth
Unknown
Elevation
Unknown
Doppler factor
Unknown
Orbital elements
Apogee altitude
561.834 km
Perigee altitude
560.153 km
Semi-major axis
6,939.131 km
Eccentricity
0.00012
Inclination
43.0041°
RAAN
46.485°
Arg. of periapsis
262.172°
True anomaly
97.91225°
Mean anomaly
97.8985°
Eccentric anomaly
97.90537°
Mean motion
3.75479 °/min
Orbital period
95.88 mins
BSTAR
-0.000015026
Loading maneuver chart data...
Computing Atmospheric mass density...
Loading historical data...
Loading historical data...
Loading historical data...
Loading historical data...
Loading historical data...
Loading historical data...
Loading historical data...

Documentation

Showing up to 5 results
|